Location: Unspecified
(0.0000°N, 0.0000°E)
Time: 10:12:45
(UTC+00:00)

Courier 1B Rocket - Pass Details

Date: 25 May 2026
Orbit: 920 x 1201 km, 28.2° (Epoch: 9 June)

Event Time Altitude Azimuth Distance (km) Brightness Sun altitude
Rises 08:53:29 0° 330° (NNW) 3,539 7.9 40.6°
Reaches altitude 10° 08:57:46 10° 358° (N) 2,598 7.6 41.5°
Maximum altitude 09:00:28 13° 24° (NNE) 2,401 7.9 42.1°
Drops below altitude 10° 09:03:12 10° 50° (NE) 2,627 8.4 42.7°
Sets 09:07:33 0° 77° (ENE) 3,614 8.7 43.6°
